"datetime","# probes","# resolvers","can_ipv6","can_ipv6_prbs","can_tcp","can_tcp_prbs","can_tcp6","can_tcp6_prbs","does_ecs","does_ecs_prbs","does_flagday","does_flagday_prbs","does_rov4","does_rov4_prbs","does_rov6","does_rov6_prbs","does_qnamemin","doesnt_qnamemin","does_qnamemin_prbs","doesnt_qnamemin_prbs","does_nxdomain","doesnt_nxdomain","does_nxdomain_prbs","doesnt_nxdomain_prbs","has_ta_19036","hasnt_ta_19036","has_ta_19036_prbs","hasnt_ta_19036_prbs","has_ta_20326","hasnt_ta_20326","has_ta_20326_prbs","hasnt_ta_20326_prbs","can_rsamd5","cannot_rsamd5","broken_rsamd5","can_rsamd5_prbs","cannot_rsamd5_prbs","broken_rsamd5_prbs","can_dsa","cannot_dsa","broken_dsa","can_dsa_prbs","cannot_dsa_prbs","broken_dsa_prbs","can_rsasha1","cannot_rsasha1","broken_rsasha1","can_rsasha1_prbs","cannot_rsasha1_prbs","broken_rsasha1_prbs","can_dsansec3","cannot_dsansec3","broken_dsansec3","can_dsansec3_prbs","cannot_dsansec3_prbs","broken_dsansec3_prbs","can_rsansec3","cannot_rsansec3","broken_rsansec3","can_rsansec3_prbs","cannot_rsansec3_prbs","broken_rsansec3_prbs","can_rsasha256","cannot_rsasha256","broken_rsasha256","can_rsasha256_prbs","cannot_rsasha256_prbs","broken_rsasha256_prbs","can_rsasha512","cannot_rsasha512","broken_rsasha512","can_rsasha512_prbs","cannot_rsasha512_prbs","broken_rsasha512_prbs","can_eccgost","cannot_eccgost","broken_eccgost","can_eccgost_prbs","cannot_eccgost_prbs","broken_eccgost_prbs","can_ecdsa256","cannot_ecdsa256","broken_ecdsa256","can_ecdsa256_prbs","cannot_ecdsa256_prbs","broken_ecdsa256_prbs","can_ecdsa384","cannot_ecdsa384","broken_ecdsa384","can_ecdsa384_prbs","cannot_ecdsa384_prbs","broken_ecdsa384_prbs","can_ed25519","cannot_ed25519","broken_ed25519","can_ed25519_prbs","cannot_ed25519_prbs","broken_ed25519_prbs","can_ed448","cannot_ed448","broken_ed448","can_ed448_prbs","cannot_ed448_prbs","broken_ed448_prbs","can_gost","cannot_gost","broken_gost","can_gost_prbs","cannot_gost_prbs","broken_gost_prbs","can_sha384","cannot_sha384","broken_sha384","can_sha384_prbs","cannot_sha384_prbs","broken_sha384_prbs","is_internal","is_forwarding","is_external","is_internal_prbs","is_forwarding_prbs","is_external_prbs"
2019-01-28T23:57:25Z,6,6,3,4,6,6,3,4,0,0,6,6,0,0,0,0,2,4,3,4,0,6,0,6,0,0,0,0,0,0,0,0,1,5,0,1,6,0,2,4,0,3,4,0,3,3,0,4,3,0,2,4,0,3,4,0,3,3,0,4,3,0,3,3,0,4,3,0,3,3,0,4,3,0,3,3,0,3,4,0,3,3,0,4,3,0,3,3,0,4,3,0,2,4,0,2,4,0,0,6,0,0,6,0,1,5,0,1,6,0,3,3,0,4,3,0,6,0,0,6,0,1
2019-01-29T23:58:12Z,8,9,5,5,9,8,5,5,0,0,9,8,0,0,0,0,4,5,4,5,0,9,0,8,0,3,0,2,3,0,2,0,1,8,0,1,7,0,2,7,0,3,6,0,6,3,0,6,3,0,2,7,0,3,6,0,6,3,0,6,3,0,6,3,0,6,3,0,6,3,0,6,3,0,2,7,0,2,6,0,6,3,0,6,3,0,6,3,0,6,3,0,2,7,0,2,6,0,0,9,0,0,8,0,2,7,0,2,6,0,6,3,0,6,3,0,9,0,0,8,0,1
2019-01-30T23:59:57Z,35,40,34,32,39,35,31,30,0,4,40,35,0,0,0,0,5,35,7,32,0,39,0,35,0,4,0,4,4,0,4,0,2,37,1,2,33,5,30,9,1,29,12,2,34,5,1,32,7,2,30,9,1,29,13,2,34,5,1,32,7,2,34,5,1,32,7,2,34,5,1,32,7,2,28,11,1,26,17,2,34,5,1,32,7,2,34,5,1,32,7,2,1,38,1,7,34,2,0,39,1,1,35,2,30,9,1,28,13,2,34,6,0,32,7,1,39,0,1,34,1,7
2019-01-31T23:59:59Z,63,75,65,59,75,63,62,55,0,2,75,63,0,0,0,0,5,70,8,60,0,75,0,63,0,5,0,4,5,0,4,0,3,72,0,4,60,3,65,10,0,57,10,1,69,6,0,60,6,1,64,11,0,56,12,1,69,6,0,60,6,1,69,6,0,60,6,1,69,6,0,60,6,1,62,13,0,54,18,1,69,6,0,60,6,1,69,6,0,60,6,1,3,72,0,5,61,1,1,74,0,1,63,1,62,13,0,54,17,1,69,6,0,60,6,1,74,0,1,62,2,8
2019-02-01T23:59:58Z,15,17,9,13,17,15,9,10,0,0,17,15,0,0,0,0,6,11,6,12,0,17,0,15,0,4,0,3,4,0,3,0,0,17,0,0,15,0,9,8,0,11,6,0,12,5,0,13,4,0,8,9,0,10,7,0,12,5,0,13,4,0,12,5,0,13,4,0,12,5,0,13,4,0,7,10,0,10,8,0,12,5,0,13,4,0,12,5,0,13,4,0,2,15,0,2,14,0,1,16,0,1,15,0,7,10,0,10,8,0,12,5,0,13,4,0,17,0,0,15,0,2
2019-02-02T23:59:38Z,10,11,6,8,11,10,6,7,0,0,11,10,0,0,0,0,6,5,6,7,0,11,0,10,0,4,0,3,4,0,3,0,0,11,0,0,10,0,4,7,0,6,6,0,7,4,0,8,4,0,2,9,0,5,8,0,7,4,0,8,4,0,7,4,0,8,4,0,7,4,0,8,4,0,1,10,0,4,9,0,7,4,0,8,4,0,7,4,0,8,4,0,3,8,0,3,9,0,1,10,0,1,10,0,1,10,0,4,9,0,7,4,0,8,4,0,11,0,0,10,0,2
2019-02-03T23:59:57Z,11,13,8,9,13,11,8,9,0,0,13,11,0,0,0,0,6,7,6,8,0,13,0,11,0,3,0,2,3,0,2,0,0,13,0,0,11,0,3,10,0,6,8,0,8,5,0,9,4,0,4,9,0,6,7,0,8,5,0,9,4,0,8,5,0,9,4,0,8,5,0,9,4,0,4,9,0,6,7,0,8,5,0,9,4,0,8,5,0,9,4,0,2,11,0,2,9,0,0,13,0,0,11,0,2,11,0,4,9,0,8,5,0,9,4,0,13,0,0,11,0,2
2019-02-04T23:59:58Z,14,15,10,12,15,14,9,11,0,0,15,14,0,0,0,0,6,9,6,11,0,15,0,14,0,4,0,3,4,0,3,0,2,13,0,2,13,0,8,7,0,10,7,0,12,3,0,13,4,0,7,8,0,10,8,0,12,3,0,13,4,0,12,3,0,13,4,0,12,3,0,13,4,0,6,9,0,9,10,0,12,3,0,13,4,0,12,3,0,13,4,0,1,14,0,1,14,0,1,14,0,1,14,0,6,9,0,9,10,0,12,3,0,13,4,0,14,1,0,13,1,2
2019-02-05T23:59:58Z,13,15,10,12,15,13,9,11,0,0,15,13,0,0,0,0,7,8,7,9,0,15,0,13,0,4,0,3,4,0,3,0,0,15,0,0,13,0,7,8,0,9,7,0,11,4,0,12,4,0,8,7,0,10,6,0,11,4,0,12,4,0,11,4,0,12,4,0,11,4,0,12,4,0,5,10,0,8,9,0,11,4,0,12,4,0,11,4,0,12,4,0,3,12,0,3,11,0,1,14,0,1,13,0,4,11,0,7,10,0,11,4,0,12,4,0,15,0,0,13,0,2
2019-02-06T23:59:35Z,8,10,6,7,10,8,5,7,0,0,10,8,0,0,0,0,5,5,5,6,0,10,0,8,0,3,0,2,3,0,2,0,0,10,0,0,8,0,3,7,0,5,6,0,6,4,0,7,4,0,1,9,0,4,8,0,6,4,0,7,4,0,6,4,0,7,4,0,6,4,0,7,4,0,1,9,0,3,8,0,6,4,0,7,4,0,6,4,0,7,4,0,1,9,0,1,7,0,0,10,0,0,8,0,2,8,0,4,7,0,6,4,0,7,4,0,10,0,0,8,0,2
2019-02-07T23:59:58Z,9,11,6,7,11,9,6,7,0,0,11,9,0,0,0,0,6,5,6,6,0,11,0,9,0,3,0,2,3,0,2,0,1,10,0,1,8,0,4,7,0,6,5,0,7,4,0,8,3,0,2,9,0,5,7,0,7,4,0,8,3,0,7,4,0,8,3,0,7,4,0,8,3,0,2,9,0,4,7,0,7,4,0,8,3,0,7,4,0,8,3,0,2,9,0,2,8,0,0,11,0,0,9,0,2,9,0,4,7,0,7,4,0,8,3,0,11,0,0,9,0,2
2019-02-08T23:59:36Z,9,11,4,5,11,9,4,5,0,0,11,9,0,0,0,0,5,6,5,7,0,11,0,9,0,3,0,2,3,0,2,0,2,9,0,2,7,0,3,8,0,5,6,0,6,5,0,7,4,0,2,9,0,5,7,0,6,5,0,7,4,0,6,5,0,7,4,0,6,5,0,7,4,0,1,10,0,3,8,0,6,5,0,7,4,0,6,5,0,7,4,0,0,11,0,0,9,0,0,11,0,0,9,0,1,10,0,3,8,0,6,5,0,7,4,0,11,0,0,9,0,2
2019-02-09T23:59:36Z,11,14,8,8,14,11,8,8,0,0,14,11,0,0,0,0,8,6,7,7,0,14,0,11,0,3,0,2,5,0,3,0,1,13,0,1,10,0,6,8,0,7,6,0,9,5,0,9,4,0,5,9,0,7,7,0,9,5,0,9,4,0,9,5,0,9,4,0,9,5,0,9,4,0,5,9,0,6,7,0,9,5,0,9,4,0,9,5,0,9,4,0,1,13,0,1,10,0,0,14,0,0,11,0,5,9,0,6,7,0,9,5,0,9,4,0,13,1,0,10,1,2
2019-02-10T23:59:35Z,9,12,7,7,12,9,7,7,0,0,12,9,0,0,0,0,8,4,7,5,0,12,0,9,0,5,0,3,5,0,3,0,0,12,0,0,9,0,2,10,0,4,8,0,7,5,0,7,4,0,2,10,0,4,8,0,7,5,0,7,4,0,7,5,0,7,4,0,7,5,0,7,4,0,2,10,0,3,8,0,7,5,0,7,4,0,7,5,0,7,4,0,1,11,0,1,8,0,0,12,0,0,9,0,2,10,0,3,8,0,7,5,0,7,4,0,12,0,0,9,0,2
2019-02-11T23:59:37Z,12,15,9,9,15,12,9,9,0,0,15,12,0,0,0,0,8,7,7,8,0,15,0,12,0,5,0,3,5,0,3,0,2,13,0,2,10,0,7,8,0,8,6,0,10,5,0,10,4,0,5,10,0,7,8,0,10,5,0,10,4,0,10,5,0,10,4,0,10,5,0,10,4,0,5,10,0,6,9,0,10,5,0,10,4,0,10,5,0,10,4,0,2,13,0,2,11,0,0,15,0,0,12,0,6,9,0,7,8,0,10,5,0,10,4,0,14,1,0,11,1,2
2019-02-12T23:59:35Z,10,13,7,7,13,10,7,7,0,0,13,10,0,0,0,0,8,5,7,6,0,13,0,10,0,5,0,3,5,0,3,0,0,13,0,0,10,0,4,9,0,5,7,0,7,6,0,7,5,0,2,11,0,4,9,0,7,6,0,7,5,0,7,6,0,7,5,0,7,6,0,7,5,0,2,11,0,3,9,0,7,6,0,7,5,0,7,6,0,7,5,0,1,12,0,1,9,0,0,13,0,0,10,0,2,11,0,3,9,0,7,6,0,7,5,0,13,0,0,10,0,2
2019-02-13T23:59:37Z,9,12,7,7,12,9,7,7,0,0,12,9,0,0,0,0,8,4,7,5,0,12,0,9,0,5,0,3,5,0,3,0,0,12,0,0,9,0,3,9,0,4,7,0,7,5,0,7,4,0,4,8,0,5,6,0,7,5,0,7,4,0,7,5,0,7,4,0,7,5,0,7,4,0,3,9,0,4,7,0,7,5,0,7,4,0,7,5,0,7,4,0,0,12,0,0,9,0,0,12,0,0,9,0,2,10,0,3,8,0,7,5,0,7,4,0,12,0,0,9,0,2
2019-02-14T23:59:37Z,10,13,7,7,13,10,7,7,0,0,13,10,0,0,0,0,8,5,7,6,0,13,0,10,0,5,0,3,5,0,3,0,1,12,0,1,9,0,5,8,0,6,6,0,8,5,0,8,4,0,5,8,0,6,6,0,8,5,0,8,4,0,8,5,0,8,4,0,8,5,0,8,4,0,4,9,0,5,7,0,8,5,0,8,4,0,8,5,0,8,4,0,1,12,0,1,9,0,0,13,0,0,10,0,4,9,0,5,7,0,8,5,0,8,4,0,13,0,0,10,0,2
2019-02-15T23:59:38Z,9,12,7,7,12,9,7,7,0,0,12,9,0,0,0,0,7,5,6,6,0,12,0,9,0,5,0,3,5,0,3,0,0,12,0,0,9,0,2,10,0,4,8,0,7,5,0,7,4,0,3,9,0,4,7,0,7,5,0,7,4,0,7,5,0,7,4,0,7,5,0,7,4,0,2,10,0,3,8,0,7,5,0,7,4,0,7,5,0,7,4,0,2,10,0,2,8,0,0,12,0,0,9,0,2,10,0,3,8,0,7,5,0,7,4,0,12,0,0,9,0,2
2019-02-16T23:58:10Z,10,13,8,8,13,10,8,8,0,0,13,10,0,0,0,0,8,5,7,6,0,13,0,10,0,5,0,3,5,0,3,0,0,13,0,0,10,0,4,9,0,5,7,0,8,5,0,8,4,0,3,10,0,5,8,0,8,5,0,8,4,0,8,5,0,8,4,0,8,5,0,8,4,0,3,10,0,4,8,0,8,5,0,8,4,0,8,5,0,8,4,0,2,11,0,2,9,0,0,13,0,0,10,0,4,9,0,5,7,0,8,5,0,8,4,0,13,0,0,10,0,2
2019-02-17T23:58:11Z,9,12,6,6,12,9,6,6,0,0,12,9,0,0,0,0,6,6,5,6,0,12,0,9,0,5,0,3,5,0,3,0,1,11,0,1,8,0,4,8,0,5,6,0,7,5,0,7,4,0,4,8,0,5,6,0,7,5,0,7,4,0,7,5,0,7,4,0,7,5,0,7,4,0,4,8,0,4,6,0,7,5,0,7,4,0,7,5,0,7,4,0,0,12,0,0,9,0,0,12,0,0,9,0,4,8,0,4,6,0,7,5,0,7,4,0,11,1,0,8,1,2
2019-02-18T23:58:09Z,7,10,5,5,10,7,5,5,0,0,10,7,0,0,0,0,6,4,5,4,0,10,0,7,0,5,0,3,5,0,3,0,0,10,0,0,7,0,2,8,0,3,6,0,5,5,0,5,4,0,2,8,0,3,6,0,5,5,0,5,4,0,5,5,0,5,4,0,5,5,0,5,4,0,2,8,0,2,6,0,5,5,0,5,4,0,5,5,0,5,4,0,0,10,0,0,7,0,0,10,0,0,7,0,2,8,0,2,6,0,5,5,0,5,4,0,10,0,0,7,0,2
2019-02-19T23:59:04Z,11,13,9,9,13,11,9,9,0,0,13,11,0,0,0,0,6,6,6,7,1,12,1,11,0,5,0,3,5,0,3,0,0,12,1,0,11,1,5,7,1,6,7,1,8,4,1,9,4,1,4,8,1,5,8,1,8,4,1,9,4,1,8,4,1,9,4,1,8,4,1,9,4,1,4,8,1,4,8,1,8,4,1,9,4,1,8,4,1,9,4,1,1,11,1,2,9,1,0,12,1,0,11,1,3,9,1,3,9,1,8,4,1,9,4,1,13,0,0,11,0,3
2019-02-20T23:58:12Z,8,11,6,6,11,8,6,6,0,0,11,8,0,0,0,0,6,5,5,5,0,11,0,8,0,5,0,3,5,0,3,0,0,11,0,0,8,0,2,9,0,3,7,0,6,5,0,6,4,0,2,9,0,3,7,0,6,5,0,6,4,0,6,5,0,6,4,0,6,5,0,6,4,0,2,9,0,2,7,0,6,5,0,6,4,0,6,5,0,6,4,0,0,11,0,0,8,0,0,11,0,0,8,0,2,9,0,2,7,0,6,5,0,6,4,0,11,0,0,8,0,2
2019-02-21T23:58:12Z,8,9,4,5,9,8,4,5,0,0,9,8,0,0,0,0,5,4,5,5,0,9,0,8,0,3,0,2,3,0,2,0,1,8,0,1,7,0,1,8,0,3,7,0,5,4,0,6,4,0,1,8,0,3,7,0,5,4,0,6,4,0,5,4,0,6,4,0,5,4,0,6,4,0,1,8,0,2,7,0,5,4,0,6,4,0,5,4,0,6,4,0,1,8,0,1,7,0,0,9,0,0,8,0,1,8,0,2,7,0,5,4,0,6,4,0,9,0,0,8,0,2
2019-02-22T23:58:15Z,10,12,5,7,12,10,5,6,0,0,12,10,0,0,0,0,5,7,5,7,0,12,0,10,0,4,0,3,4,0,3,0,1,11,0,1,9,0,4,8,0,6,6,0,7,5,0,8,4,0,2,10,0,4,8,0,7,5,0,8,4,0,7,5,0,8,4,0,7,5,0,8,4,0,1,11,0,3,9,0,7,5,0,8,4,0,7,5,0,8,4,0,3,9,0,3,8,0,1,11,0,1,10,0,1,11,0,3,9,0,7,5,0,8,4,0,12,0,0,10,0,2
2019-02-23T23:58:11Z,8,11,6,6,11,8,4,5,0,0,11,8,0,0,0,0,6,5,5,5,0,11,0,8,0,3,0,2,3,0,2,0,0,11,0,0,8,0,2,9,0,4,7,0,6,5,0,6,4,0,1,10,0,3,8,0,4,7,0,5,5,0,4,7,0,5,5,0,5,6,0,6,5,0,0,11,0,1,8,0,6,5,0,6,4,0,6,5,0,6,4,0,0,11,0,0,8,0,0,11,0,0,8,0,1,10,0,2,8,0,6,5,0,6,4,0,11,0,0,8,0,2
2019-02-24T23:58:12Z,9,12,7,7,12,9,5,6,0,0,12,9,0,0,0,0,8,4,7,4,0,12,0,9,0,5,0,3,4,0,3,0,0,12,0,0,9,0,2,10,0,3,8,0,7,5,0,7,4,0,2,10,0,3,8,0,7,5,0,7,4,0,7,5,0,7,4,0,7,5,0,7,4,0,2,10,0,2,8,0,7,5,0,7,4,0,7,5,0,7,4,0,1,11,0,1,8,0,0,12,0,0,9,0,3,9,0,3,7,0,7,5,0,7,4,0,12,0,0,9,0,2
2019-02-25T23:58:12Z,9,12,6,7,12,9,4,5,0,0,12,9,0,0,0,0,6,6,5,6,0,12,0,9,0,6,0,4,6,0,4,0,0,12,0,0,9,0,3,9,0,4,7,0,7,5,0,7,4,0,3,9,0,4,7,0,7,5,0,7,4,0,7,5,0,7,4,0,7,5,0,7,4,0,2,10,0,3,8,0,7,5,0,7,4,0,7,5,0,7,4,0,2,10,0,2,8,0,1,11,0,1,9,0,2,10,0,3,8,0,7,5,0,7,4,0,12,0,0,9,0,2
2019-02-26T23:58:10Z,10,13,7,7,13,10,5,6,0,0,13,10,0,0,0,0,7,6,6,6,0,13,0,10,0,3,0,2,3,0,2,0,1,12,0,1,9,0,2,11,0,4,8,0,6,7,0,7,5,0,2,11,0,4,8,0,6,7,0,7,5,0,6,7,0,7,5,0,6,7,0,7,5,0,2,11,0,3,8,0,6,7,0,7,5,0,6,7,0,7,5,0,1,12,0,1,9,0,0,13,0,0,10,0,1,12,0,2,9,0,6,7,0,7,5,0,13,0,0,10,0,2
2019-02-27T23:58:15Z,11,14,8,9,14,11,6,7,0,0,14,11,0,0,0,0,8,6,7,6,0,14,0,11,0,6,0,4,6,0,4,0,0,14,0,0,11,0,5,9,0,6,7,0,9,5,0,9,4,0,5,9,0,6,7,0,9,5,0,9,4,0,9,5,0,9,4,0,9,5,0,9,4,0,4,10,0,5,8,0,9,5,0,9,4,0,9,5,0,9,4,0,2,12,0,2,10,0,1,13,0,1,11,0,3,11,0,4,9,0,9,5,0,9,4,0,14,0,0,11,0,2
2019-02-28T23:58:10Z,9,12,6,6,12,9,6,6,0,0,12,9,0,0,0,0,7,5,6,5,0,12,0,9,0,5,0,3,5,0,3,0,1,11,0,1,8,0,4,8,0,5,6,0,7,5,0,7,4,0,4,8,0,5,6,0,7,5,0,7,4,0,7,5,0,7,4,0,7,5,0,7,4,0,4,8,0,4,6,0,7,5,0,7,4,0,7,5,0,7,4,0,1,11,0,1,8,0,0,12,0,0,9,0,3,9,0,3,7,0,7,5,0,7,4,0,12,0,0,9,0,2
2019-03-01T23:58:11Z,6,8,5,5,8,6,5,5,0,0,8,6,0,0,0,0,6,2,5,3,0,8,0,6,0,5,0,3,5,0,3,0,0,8,0,0,6,0,2,6,0,3,5,0,5,3,0,5,3,0,2,6,0,3,5,0,5,3,0,5,3,0,5,3,0,5,3,0,5,3,0,5,3,0,2,6,0,2,5,0,5,3,0,5,3,0,5,3,0,5,3,0,0,8,0,0,6,0,0,8,0,0,6,0,2,6,0,2,5,0,5,3,0,5,3,0,8,0,0,6,0,2
2019-03-02T23:58:11Z,9,12,6,6,12,9,6,6,0,0,12,9,0,0,0,0,7,5,6,5,0,12,0,9,0,5,0,3,5,0,3,0,1,11,0,1,8,0,3,9,0,4,7,0,7,5,0,7,4,0,4,8,0,5,6,0,7,5,0,7,4,0,7,5,0,7,4,0,7,5,0,7,4,0,4,8,0,4,6,0,7,5,0,7,4,0,7,5,0,7,4,0,1,11,0,1,8,0,0,12,0,0,9,0,3,9,0,3,7,0,7,5,0,7,4,0,12,0,0,9,0,2
2019-03-03T23:58:10Z,7,10,5,5,10,7,5,5,0,0,10,7,0,0,0,0,6,4,5,4,0,10,0,7,0,5,0,3,5,0,3,0,0,10,0,0,7,0,2,8,0,3,6,0,5,5,0,5,4,0,2,8,0,3,6,0,5,5,0,5,4,0,5,5,0,5,4,0,5,5,0,5,4,0,2,8,0,2,6,0,5,5,0,5,4,0,5,5,0,5,4,0,0,10,0,0,7,0,0,10,0,0,7,0,2,8,0,2,6,0,5,5,0,5,4,0,10,0,0,7,0,2
2019-03-04T23:58:12Z,8,11,5,5,11,8,5,5,0,0,11,8,0,0,0,0,6,5,5,5,1,10,1,7,0,5,0,3,5,0,4,0,1,10,0,1,7,0,3,8,0,4,6,0,6,5,0,6,4,0,3,8,0,4,6,0,6,5,0,6,4,0,6,5,0,6,4,0,6,5,0,6,4,0,3,8,0,3,6,0,6,5,0,6,4,0,6,5,0,6,4,0,0,11,0,0,8,0,0,11,0,0,8,0,3,8,0,3,6,0,6,5,0,6,4,0,11,0,0,8,0,2
2019-03-05T23:58:11Z,9,12,6,6,12,9,6,6,0,0,12,9,0,0,0,0,7,5,6,5,0,12,0,9,0,5,0,3,5,0,3,0,1,11,0,1,8,0,3,9,0,4,7,0,7,5,0,7,4,0,3,9,0,4,7,0,7,5,0,7,4,0,7,5,0,7,4,0,7,5,0,7,4,0,4,8,0,4,6,0,7,5,0,7,4,0,7,5,0,7,4,0,1,11,0,1,8,0,0,12,0,0,9,0,3,9,0,3,7,0,7,5,0,7,4,0,12,0,0,9,0,2
2019-03-06T23:58:11Z,9,12,7,7,12,9,7,7,0,0,12,9,0,0,0,0,8,4,7,4,0,12,0,9,0,5,0,3,5,0,3,0,0,12,0,0,9,0,3,9,0,4,7,0,7,5,0,7,4,0,4,8,0,5,6,0,7,5,0,7,4,0,7,5,0,7,4,0,7,5,0,7,4,0,3,9,0,3,7,0,7,5,0,7,4,0,7,5,0,7,4,0,1,11,0,1,8,0,0,12,0,0,9,0,3,9,0,3,7,0,7,5,0,7,4,0,12,0,0,9,0,2
2019-03-07T23:58:11Z,10,13,8,8,13,10,8,8,0,0,13,10,0,0,0,0,6,7,5,7,0,13,0,10,0,5,0,3,5,0,3,0,0,13,0,0,10,0,3,10,0,4,8,0,8,5,0,8,4,0,4,9,0,5,7,0,8,5,0,8,4,0,8,5,0,8,4,0,8,5,0,8,4,0,4,9,0,4,7,0,8,5,0,8,4,0,8,5,0,8,4,0,2,11,0,2,8,0,0,13,0,0,10,0,2,11,0,2,9,0,8,5,0,8,4,0,13,0,0,10,0,2
2019-03-08T23:58:12Z,9,12,6,7,12,9,6,7,0,0,12,9,0,0,0,0,6,6,6,6,0,12,0,9,0,5,0,3,5,0,3,0,0,12,0,0,9,0,4,8,0,5,7,0,7,5,0,7,4,0,4,8,0,5,7,0,7,5,0,7,4,0,7,5,0,7,4,0,7,5,0,7,4,0,4,8,0,4,7,0,7,5,0,7,4,0,7,5,0,7,4,0,0,12,0,1,9,0,0,12,0,0,9,0,4,8,0,4,7,0,7,5,0,7,4,0,12,0,0,9,0,3
2019-03-09T23:58:29Z,9,12,7,7,12,9,7,7,0,0,12,9,0,0,0,0,7,5,6,5,0,12,0,9,0,5,0,3,5,0,3,0,0,12,0,0,9,0,4,8,0,5,6,0,7,5,0,7,4,0,3,9,0,4,7,0,7,5,0,7,4,0,7,5,0,7,4,0,7,5,0,7,4,0,3,9,0,3,7,0,7,5,0,7,4,0,7,5,0,7,4,0,1,11,0,1,8,0,0,12,0,0,9,0,3,9,0,3,7,0,7,5,0,7,4,0,12,0,0,9,0,2
2019-03-10T23:58:12Z,8,11,6,6,11,8,6,6,0,0,11,8,0,0,0,0,7,4,6,4,0,11,0,8,0,5,0,3,5,0,3,0,0,11,0,0,8,0,3,8,0,4,6,0,6,5,0,6,4,0,2,9,0,3,7,0,6,5,0,6,4,0,6,5,0,6,4,0,6,5,0,6,4,0,3,8,0,3,6,0,6,5,0,6,4,0,6,5,0,6,4,0,1,10,0,1,7,0,0,11,0,0,8,0,2,9,0,2,7,0,6,5,0,6,4,0,11,0,0,8,0,2
2019-03-11T23:58:09Z,8,11,6,6,11,8,6,6,0,0,11,8,0,0,0,0,7,4,6,4,0,11,0,8,0,5,0,3,5,0,3,0,0,11,0,0,8,0,2,9,0,3,7,0,6,5,0,6,4,0,2,9,0,3,7,0,6,5,0,6,4,0,6,5,0,6,4,0,6,5,0,6,4,0,3,8,0,3,6,0,6,5,0,6,4,0,6,5,0,6,4,0,1,10,0,1,7,0,0,11,0,0,8,0,3,8,0,3,6,0,6,5,0,6,4,0,11,0,0,8,0,2
2019-03-12T23:59:37Z,9,12,7,7,12,9,7,7,0,0,12,9,0,0,0,0,8,4,7,5,0,12,0,9,0,5,0,3,5,0,3,0,0,12,0,0,9,0,2,10,0,4,8,0,7,5,0,7,4,0,2,10,0,4,8,0,7,5,0,7,4,0,7,5,0,7,4,0,7,5,0,7,4,0,2,10,0,3,8,0,7,5,0,7,4,0,7,5,0,7,4,0,1,11,0,1,8,0,0,12,0,0,9,0,2,10,0,3,8,0,7,5,0,7,4,0,12,0,0,9,0,2
2019-03-13T23:59:38Z,11,14,8,9,14,11,7,8,0,0,14,11,0,0,0,0,8,6,7,7,0,14,0,11,0,6,0,4,6,0,4,0,0,14,0,0,11,0,6,8,0,7,7,0,9,5,0,9,5,0,4,10,0,6,9,0,9,5,0,9,5,0,9,5,0,9,5,0,9,5,0,9,5,0,3,11,0,5,10,0,9,5,0,9,5,0,9,5,0,9,5,0,2,12,0,2,10,0,1,13,0,1,11,0,3,11,0,5,10,0,9,5,0,9,5,0,14,0,0,11,0,2
2019-03-14T23:58:10Z,8,11,6,6,11,8,5,6,0,0,11,8,0,0,0,0,6,5,5,5,0,11,0,8,0,5,0,3,5,0,3,0,0,11,0,0,8,0,3,8,0,4,7,0,6,5,0,6,5,0,3,8,0,4,7,0,6,5,0,6,5,0,6,5,0,6,5,0,6,5,0,6,5,0,3,8,0,3,7,0,6,5,0,6,5,0,6,5,0,6,5,0,0,11,0,0,8,0,0,11,0,0,8,0,3,8,0,3,7,0,6,5,0,6,5,0,11,0,0,8,0,2
2019-03-15T23:59:35Z,12,15,10,10,15,12,9,10,0,0,15,12,0,0,0,0,8,7,7,8,0,15,0,12,0,5,0,3,5,0,3,0,0,15,0,0,12,0,6,9,0,7,8,0,10,5,0,10,5,0,5,10,0,7,9,0,10,5,0,10,5,0,10,5,0,10,5,0,10,5,0,10,5,0,5,10,0,6,9,0,10,5,0,10,5,0,10,5,0,10,5,0,2,13,0,2,11,0,0,15,0,0,12,0,5,10,0,6,9,0,10,5,0,10,5,0,14,1,0,11,1,2
2019-03-16T23:59:35Z,12,15,9,9,15,12,8,9,0,0,15,12,0,0,0,0,8,7,7,8,0,15,0,12,0,5,0,3,5,0,3,0,1,14,0,1,11,0,7,8,0,8,7,0,10,5,0,10,5,0,6,9,0,8,8,0,10,5,0,10,5,0,10,5,0,10,5,0,10,5,0,10,5,0,6,9,0,7,8,0,10,5,0,10,5,0,10,5,0,10,5,0,1,14,0,1,12,0,0,15,0,0,12,0,5,10,0,6,9,0,10,5,0,10,5,0,14,1,0,11,1,2
2019-03-17T23:59:37Z,9,12,7,7,12,9,7,7,0,0,12,9,0,0,0,0,7,5,6,6,0,12,0,9,0,5,0,3,5,0,3,0,0,12,0,0,9,0,3,9,0,5,7,0,7,5,0,7,4,0,4,8,0,5,6,0,7,5,0,7,4,0,7,5,0,7,4,0,7,5,0,7,4,0,3,9,0,4,7,0,7,5,0,7,4,0,7,5,0,7,4,0,0,12,0,0,9,0,0,12,0,0,9,0,3,9,0,4,7,0,7,5,0,7,4,0,11,1,0,8,1,2
2019-03-18T23:59:36Z,10,13,7,7,13,10,6,7,0,0,13,10,0,0,0,0,7,6,6,7,0,13,0,10,0,5,0,3,5,0,3,0,1,12,0,1,9,0,3,10,0,5,8,0,7,6,0,7,5,0,4,9,0,6,8,0,8,5,0,8,5,0,8,5,0,8,5,0,8,5,0,8,5,0,4,9,0,5,8,0,8,5,0,8,5,0,7,6,0,7,5,0,0,13,0,0,10,0,0,13,0,0,10,0,4,9,0,5,8,0,8,5,0,8,5,0,13,0,0,10,0,2
2019-03-19T23:59:35Z,11,14,8,8,14,11,7,8,0,0,14,11,0,0,0,0,7,7,6,8,0,14,0,11,0,5,0,3,5,0,3,0,1,13,0,1,10,0,6,8,0,7,7,0,9,5,0,9,5,0,6,8,0,7,7,0,9,5,0,9,5,0,9,5,0,9,5,0,9,5,0,9,5,0,5,9,0,6,8,0,9,5,0,9,5,0,9,5,0,9,5,0,0,14,0,0,11,0,0,14,0,0,11,0,4,10,0,5,9,0,9,5,0,9,5,0,14,0,0,11,0,2
2019-03-20T23:59:37Z,11,14,9,9,14,11,8,9,0,0,14,11,0,0,0,0,8,6,7,7,0,14,0,11,0,5,0,3,5,0,3,0,0,14,0,0,11,0,6,8,0,7,7,0,9,5,0,9,5,0,4,10,0,6,9,0,9,5,0,9,5,0,9,5,0,9,5,0,9,5,0,9,5,0,3,11,0,4,10,0,9,5,0,9,5,0,9,5,0,9,5,0,2,12,0,2,10,0,0,14,0,0,11,0,4,10,0,5,9,0,9,5,0,9,5,0,14,0,0,11,0,2
2019-03-21T23:59:35Z,11,14,8,9,14,11,8,9,0,0,14,11,0,0,0,0,8,5,8,6,1,13,1,11,0,5,0,3,5,0,3,0,0,13,1,0,11,1,4,9,1,5,8,1,7,6,1,8,5,1,3,10,1,5,9,1,7,6,1,8,5,1,7,6,1,8,5,1,7,6,1,8,5,1,3,10,1,4,9,1,7,6,1,8,5,1,7,6,1,8,5,1,2,11,1,3,9,1,0,13,1,0,11,1,3,10,1,4,9,1,7,6,1,8,5,1,14,0,0,11,0,3
2019-03-22T23:59:37Z,14,17,11,11,17,14,10,11,0,0,17,14,0,0,0,0,8,9,7,10,0,17,0,14,0,5,0,3,5,0,3,0,1,16,0,1,13,0,7,10,0,9,9,0,11,6,0,11,6,0,6,11,0,8,10,0,11,6,0,11,6,0,11,6,0,11,6,0,11,6,0,11,6,0,6,11,0,7,10,0,11,6,0,11,6,0,11,6,0,11,6,0,1,16,0,1,13,0,0,17,0,0,14,0,6,11,0,7,10,0,11,6,0,11,6,0,16,1,0,13,1,2
2019-03-23T23:59:36Z,11,14,9,9,14,11,8,9,0,0,14,11,0,0,0,0,7,7,6,8,0,14,0,11,0,5,0,3,5,0,3,0,0,14,0,0,11,0,3,11,0,5,10,0,8,6,0,8,6,0,5,9,0,6,8,0,8,6,0,8,6,0,8,6,0,8,6,0,8,6,0,8,6,0,3,11,0,4,10,0,8,6,0,8,6,0,7,7,0,7,6,0,1,13,0,1,11,0,0,14,0,0,11,0,3,11,0,4,10,0,8,6,0,8,6,0,14,0,0,11,0,2
2019-03-24T23:59:38Z,12,15,9,9,15,12,8,9,0,0,15,12,0,0,0,0,7,8,6,9,0,15,0,12,0,5,0,3,5,0,3,0,1,14,0,1,11,0,6,9,0,7,8,0,9,6,0,9,6,0,5,10,0,7,9,0,9,6,0,9,6,0,9,6,0,9,6,0,9,6,0,9,6,0,5,10,0,6,9,0,9,6,0,9,6,0,9,6,0,9,6,0,0,15,0,0,12,0,0,15,0,0,12,0,5,10,0,6,9,0,9,6,0,9,6,0,14,1,0,11,1,2
2019-03-25T23:59:36Z,13,16,10,10,16,13,9,10,0,0,16,13,0,0,0,0,8,8,7,9,0,16,0,13,0,5,0,3,5,0,3,0,1,15,0,1,12,0,4,12,0,6,11,0,10,6,0,10,6,0,6,10,0,7,9,0,10,6,0,10,6,0,10,6,0,10,6,0,10,6,0,10,6,0,5,11,0,6,10,0,10,6,0,10,6,0,10,6,0,10,6,0,1,15,0,1,13,0,0,16,0,0,13,0,5,11,0,6,10,0,10,6,0,10,6,0,16,0,0,13,0,2
2019-03-26T23:58:12Z,13,16,10,10,16,13,9,10,0,0,16,13,0,0,0,0,8,8,7,9,0,16,0,13,0,5,0,3,5,0,3,0,1,15,0,1,12,0,4,12,0,6,11,0,10,6,0,10,6,0,6,10,0,7,9,0,10,6,0,10,6,0,10,6,0,10,6,0,10,6,0,10,6,0,5,11,0,6,10,0,10,6,0,10,6,0,10,6,0,10,6,0,1,15,0,1,13,0,0,16,0,0,13,0,5,11,0,6,10,0,10,6,0,10,6,0,16,0,0,13,0,2
2019-03-27T23:59:37Z,13,16,10,10,16,13,9,10,0,0,16,13,0,0,0,0,8,8,7,9,0,16,0,13,0,5,0,3,5,0,3,0,1,15,0,1,12,0,4,12,0,6,11,0,10,6,0,10,6,0,6,10,0,7,9,0,10,6,0,10,6,0,10,6,0,10,6,0,10,6,0,10,6,0,5,11,0,6,10,0,10,6,0,10,6,0,10,6,0,10,6,0,1,15,0,1,13,0,0,16,0,0,13,0,5,11,0,6,10,0,10,6,0,10,6,0,16,0,0,13,0,2
2019-03-28T23:59:36Z,13,16,10,10,16,13,9,10,0,0,16,13,0,0,0,0,8,8,7,9,0,16,0,13,0,5,0,3,5,0,3,0,1,15,0,1,12,0,4,12,0,6,11,0,10,6,0,10,6,0,6,10,0,7,9,0,10,6,0,10,6,0,10,6,0,10,6,0,10,6,0,10,6,0,5,11,0,6,10,0,10,6,0,10,6,0,10,6,0,10,6,0,1,15,0,1,13,0,0,16,0,0,13,0,5,11,0,6,10,0,10,6,0,10,6,0,16,0,0,13,0,2
2019-03-29T23:59:59Z,13,16,10,10,16,13,9,10,0,0,16,13,0,0,0,0,8,8,7,9,0,16,0,13,0,5,0,3,5,0,3,0,1,15,0,1,12,0,4,12,0,6,11,0,10,6,0,10,6,0,6,10,0,7,9,0,10,6,0,10,6,0,10,6,0,10,6,0,10,6,0,10,6,0,5,11,0,6,10,0,10,6,0,10,6,0,10,6,0,10,6,0,1,15,0,1,13,0,0,16,0,0,13,0,5,11,0,6,10,0,10,6,0,10,6,0,16,0,0,13,0,2
2019-03-30T23:59:59Z,13,16,10,10,16,13,9,10,0,0,16,13,0,0,0,0,8,8,7,9,0,16,0,13,0,5,0,3,5,0,3,0,1,15,0,1,12,0,4,12,0,6,11,0,10,6,0,10,6,0,6,10,0,7,9,0,10,6,0,10,6,0,10,6,0,10,6,0,10,6,0,10,6,0,5,11,0,6,10,0,10,6,0,10,6,0,10,6,0,10,6,0,1,15,0,1,13,0,0,16,0,0,13,0,5,11,0,6,10,0,10,6,0,10,6,0,16,0,0,13,0,2
2019-03-31T23:59:58Z,13,16,10,10,16,13,9,10,0,0,16,13,0,0,0,0,8,8,7,9,0,16,0,13,0,5,0,3,5,0,3,0,1,15,0,1,12,0,4,12,0,6,11,0,10,6,0,10,6,0,6,10,0,7,9,0,10,6,0,10,6,0,10,6,0,10,6,0,10,6,0,10,6,0,5,11,0,6,10,0,10,6,0,10,6,0,10,6,0,10,6,0,1,15,0,1,13,0,0,16,0,0,13,0,5,11,0,6,10,0,10,6,0,10,6,0,16,0,0,13,0,2
2019-04-01T23:59:53Z,17,21,15,14,21,17,13,13,1,1,21,17,0,0,0,0,9,12,8,12,0,21,0,17,0,5,0,3,5,0,3,0,0,21,0,0,17,0,11,10,0,10,10,0,16,5,0,14,6,0,10,11,0,10,11,0,16,5,0,14,6,0,16,5,0,14,6,0,16,5,0,14,6,0,11,10,0,10,10,0,16,5,0,14,6,0,16,5,0,14,6,0,3,18,0,3,15,0,0,21,0,0,17,0,10,11,0,9,11,0,16,5,0,14,6,0,21,0,0,17,0,2
2019-04-02T23:59:50Z,14,19,11,10,19,14,9,9,1,1,19,14,0,0,0,0,6,13,5,11,0,19,0,14,0,5,0,3,5,0,3,0,1,18,0,1,13,0,10,9,0,9,8,0,13,6,0,11,6,0,10,9,0,9,8,0,13,6,0,11,6,0,13,6,0,11,6,0,13,6,0,11,6,0,10,9,0,8,8,0,13,6,0,11,6,0,13,6,0,11,6,0,0,19,0,0,14,0,0,19,0,0,14,0,10,9,0,8,8,0,13,6,0,11,6,0,19,0,0,14,0,2
2019-04-03T23:58:10Z,12,16,11,10,16,12,10,9,0,0,16,12,0,0,0,0,8,8,7,7,0,16,0,12,0,5,0,3,5,0,3,0,0,16,0,0,12,0,6,10,0,6,8,0,10,6,0,9,5,0,6,10,0,6,8,0,10,6,0,9,5,0,10,6,0,9,5,0,10,6,0,9,5,0,6,10,0,5,8,0,10,6,0,9,5,0,10,6,0,9,5,0,1,15,0,1,11,0,0,16,0,0,12,0,6,10,0,5,8,0,10,6,0,9,5,0,16,0,0,12,0,2
2019-04-04T23:59:38Z,13,17,12,11,17,13,11,11,0,0,17,13,0,0,0,0,8,9,7,9,0,17,0,13,0,5,0,3,5,0,3,0,1,16,0,1,12,0,6,11,0,6,9,0,10,7,0,9,6,0,7,10,0,8,9,0,11,6,0,10,6,0,11,6,0,10,6,0,11,6,0,10,6,0,7,10,0,7,10,0,11,6,0,10,6,0,11,6,0,10,6,0,2,15,0,2,12,0,0,17,0,0,13,0,7,10,0,7,10,0,11,6,0,10,6,0,17,0,0,13,0,2
2019-04-05T23:58:13Z,13,17,10,10,17,13,9,9,0,0,17,13,0,0,0,0,7,10,6,9,0,17,0,13,0,6,0,4,6,0,4,0,1,16,0,1,12,0,8,9,0,8,8,0,11,6,0,10,6,0,8,9,0,8,8,0,11,6,0,10,6,0,11,6,0,10,6,0,11,6,0,10,6,0,6,11,0,6,10,0,11,6,0,10,6,0,11,6,0,10,6,0,2,15,0,2,12,0,1,16,0,1,13,0,6,11,0,6,10,0,11,6,0,10,6,0,17,0,0,13,0,2
2019-04-06T23:58:13Z,12,16,10,10,16,12,9,9,0,0,16,12,0,0,0,0,7,9,6,8,0,16,0,12,0,6,0,4,6,0,4,0,0,16,0,0,12,0,6,10,0,6,9,0,10,6,0,9,6,0,5,11,0,5,9,0,9,7,0,8,6,0,9,7,0,8,6,0,10,6,0,9,6,0,5,11,0,5,9,0,10,6,0,9,6,0,10,6,0,9,6,0,1,15,0,1,12,0,1,15,0,1,12,0,5,11,0,5,10,0,10,6,0,9,6,0,16,0,0,12,0,2
2019-04-07T23:59:38Z,12,16,11,10,16,12,10,10,0,0,16,12,0,0,0,0,8,8,7,8,0,16,0,12,0,5,0,3,5,0,3,0,0,16,0,0,12,0,6,10,0,6,9,0,10,6,0,9,6,0,6,10,0,6,9,0,10,6,0,9,6,0,10,6,0,9,6,0,10,6,0,9,6,0,4,12,0,4,10,0,10,6,0,9,6,0,10,6,0,9,6,0,1,15,0,1,11,0,0,16,0,0,12,0,5,11,0,5,10,0,10,6,0,9,6,0,16,0,0,12,0,2
2019-04-08T23:59:35Z,11,15,10,9,15,11,10,9,0,0,15,11,0,0,0,0,8,7,7,7,0,15,0,11,0,5,0,3,5,0,3,0,0,15,0,0,11,0,4,11,0,5,9,0,9,6,0,8,5,0,5,10,0,6,8,0,9,6,0,8,5,0,9,6,0,8,5,0,9,6,0,8,5,0,5,10,0,5,8,0,9,6,0,8,5,0,9,6,0,8,5,0,1,14,0,1,11,0,0,15,0,0,11,0,5,10,0,5,8,0,9,6,0,8,5,0,15,0,0,11,0,2
2019-04-09T23:59:36Z,12,16,10,9,16,12,9,9,0,0,16,12,0,0,0,0,7,9,6,9,0,16,0,12,0,5,0,3,5,0,3,0,1,15,0,1,11,0,6,10,0,7,9,0,10,6,0,9,6,0,6,10,0,7,9,0,10,6,0,9,6,0,10,6,0,9,6,0,10,6,0,9,6,0,6,10,0,6,9,0,10,6,0,9,6,0,10,6,0,9,6,0,1,15,0,1,12,0,0,16,0,0,12,0,6,10,0,6,9,0,10,6,0,9,6,0,16,0,0,12,0,2
2019-04-10T23:58:10Z,12,16,11,10,16,12,10,10,0,0,16,12,0,0,0,0,7,9,6,8,0,16,0,12,0,5,0,3,5,0,3,0,0,16,0,0,12,0,6,10,0,6,9,0,10,6,0,9,6,0,6,10,0,6,9,0,10,6,0,9,6,0,10,6,0,9,6,0,10,6,0,9,6,0,6,10,0,5,9,0,10,6,0,9,6,0,10,6,0,9,6,0,1,15,0,1,11,0,0,16,0,0,12,0,7,9,0,6,8,0,10,6,0,9,6,0,16,0,0,12,0,2
2019-04-11T23:59:36Z,12,16,11,10,16,12,10,10,0,0,16,12,0,0,0,0,7,9,6,9,0,16,0,12,0,5,0,3,5,0,3,0,0,16,0,0,12,0,6,10,0,6,9,0,10,6,0,9,6,0,6,10,0,6,9,0,10,6,0,9,6,0,10,6,0,9,6,0,10,6,0,9,6,0,5,11,0,5,10,0,10,6,0,9,6,0,10,6,0,9,6,0,0,16,0,0,12,0,0,16,0,0,12,0,5,11,0,5,10,0,10,6,0,9,6,0,16,0,0,12,0,2
2019-04-12T23:59:37Z,14,18,13,12,18,14,12,12,0,1,18,14,0,0,0,0,9,9,8,9,0,18,0,14,0,5,0,3,5,0,3,0,0,18,0,0,14,0,7,11,0,7,10,0,12,6,0,11,6,0,7,11,0,7,10,0,12,6,0,11,6,0,12,6,0,11,6,0,12,6,0,11,6,0,6,12,0,6,11,0,12,6,0,11,6,0,12,6,0,11,6,0,2,16,0,2,12,0,0,18,0,0,14,0,6,12,0,6,11,0,12,6,0,11,6,0,18,0,0,14,0,2
2019-04-13T23:59:38Z,12,16,11,10,16,12,10,10,0,0,16,12,0,0,0,0,7,9,7,9,0,16,0,12,0,5,0,3,5,0,3,0,0,15,1,0,12,1,5,11,0,5,9,0,9,7,0,8,6,0,6,10,0,6,9,0,10,6,0,9,6,0,10,6,0,9,6,0,10,6,0,9,6,0,5,11,0,5,10,0,10,6,0,9,6,0,10,6,0,9,6,0,0,16,0,0,12,0,0,16,0,0,12,0,5,11,0,5,10,0,10,6,0,9,6,0,16,0,0,12,0,2